RH
74 75 74 99 91 80 95 89 92 96 85 78 80 76 79 84 86 87 88 95 95 97 80 71 65 81 83 84 96 72 80 85 90 94 95 93 95 92 95 68 97 97 97 97 96 95 85 81 79 85 94 90 91 90
80 87 80 96 89 83 86 92 96 92 88 79 79 84 82 95 93 93 98 96 99 99 81 75 70 70 67 64 93 86 78 89 84 96 96 97 95 91 93 91 100 97 98 96 91 75 86 91 93 89 69 91 86 69
85 89 90 94 88 81 88 91 93 84 80 81 80 79 74 80 86 98 99 99 99 99 98 100 66 50 58 54 53 86 73 74 82 89 98 97 99 90 95 91 94 96 98 99 100 91 94 96 79 77 90 91 85 82
78 80 86 90 79 76 89 80 74 76 85 76 74 69 69 83 81 87 98 95 99 98 99 76 58 53 50 57 65 67 66 77 84 89 83 97 95 77 90 77 90 98 100 95 98 100 95 87 93 96 97 92 92 88
86 84 92 92 88 79 88 79 90 87 78 84 86 80 89 87 74 96 96 94 97 95 98 91 61 43 38 40 48 65 74 84 87 88 95 92 96 94 91 95 97 85 99 99 98 99 100 100 100 98 97 100 100 86
75 90 92 95 90 78 82 86 88 82 92 93 79 68 63 72 76 97 98 84 90 98 98 96 59 47 43 44 52 59 60 80 86 90 86 83 78 86 98 96 86 92 94 100 98 100 100 100 100 98 98 100 99 97
78 86 84 89 82 78 80 95 86 87 89 84 87 79 80 78 85 95 98 96 86 96 98 87 91 59 60 62 61 65 83 88 86 97 98 88 86 93 92 92 92 96 92 99 99 86 93 96 100 100 98 98 97 92
86 79 80 82 76 76 82 94 83 78 86 83 69 79 92 89 96 98 91 100 99 100 97 94 92 83 63 72 78 80 88 95 98 97 99 98 97 99 98 95 95 97 78 80 82 100 99 99 88 97 100 100 99 98
80 76 78 80 77 80 84 75 77 84 83 80 74 89 98 98 98 98 79 99 98 98 96 91 93 91 77 85 84 99 100 99 96 98 98 99 99 98 95 96 100 100 100 100 91 97 93 98 100 100 98 100 100 100
76 75 78 82 82 79 87 94 91 88 74 79 98 98 98 97 89 84 98 99 99 98 97 97 85 96 79 96 99 100 99 99 100 98 98 100 96 100 99 98 97 96 97 100 100 98 100 100 100 100 99 100 98 100
68 67 75 87 95 96 90 83 65 67 91 98 98 98 94 99 94 98 98 99 98 98 99 95 83 85 62 93 96 98 99 98 97 90 99 97 96 93 97 98 95 92 90 95 95 99 100 100 100 100 100 100 100 98
72 76 80 83 80 80 77 67 72 96 98 96 97 99 99 98 98 98 90 93 88 88 89 87 88 87 70 77 90 99 98 95 94 96 99 96 93 98 94 96 92 85 82 78 80 85 91 100 100 100 100 100 100 98
73 68 66 69 73 68 66 78 97 98 99 99 98 98 99 98 96 96 95 96 92 92 94 99 97 86 88 100 98 95 97 94 86 99 92 91 98 96 92 88 84 84 78 73 74 80 86 90 95 96 99 100 100 99
73 71 71 76 84 90 93 96 98 98 99 98 98 98 92 99 93 91 88 89 71 76 87 92 99 99 100 97 98 97 92 93 99 98 95 96 100 96 91 88 81 82 78 73 74 79 85 89 92 94 95 98 99 99
92 95 98 98 99 98 98 99 99 99 99 99 94 98 98 82 97 90 90 90 96 100 92 96 97 93 98 97 93 92 85 92 96 95 97 97 100 88 88 88 82 78 73 69 69 71 77 85 90 93 93 95 98 98
99 99 99 99 98 99 99 98 99 98 96 80 88 94 98 94 99 99 99 98 96 100 93 85 98 98 97 95 94 86 92 96 95 97 95 88 83 76 75 78 78 78 80 77 75 74 74 76 83 89 94 94 96 98
99 98 99 99 99 99 99 100 96 96 93 86 99 97 97 96 99 98 98 99 100 100 98 92 91 86 95 97 97 96 98 97 97 98 94 91 78 77 81 85 84 84 86 88 89 87 85 84 92 96 95 94 97 98
99 98 99 99 98 99 99 97 96 96 96 96 93 97 97 98 97 96 97 97 98 99 94 96 84 90 96 95 98 97 96 97 95 87 85 94 95 81 76 84 88 84 83 89 94 94 92 88 93 94 96 97 99 98
95 98 99 99 96 90 96 94 72 95 98 96 96 96 96 96 97 97 97 96 96 95 78 77 91 98 100 98 98 97 97 97 93 88 88 95 96 89 83 81 82 85 84 87 89 90 89 88 93 96 99 99 99 98
99 99 99 99 76 73 84 78 75 86 98 96 93 93 94 95 96 96 96 96 95 95 94 95 97 98 96 99 98 96 96 95 94 93 87 92 100 99 94 90 87 92 96 95 95 95 95 96 96 97 98 98 99 98
98 99 88 78 72 76 74 78 89 82 82 90 90 86 92 89 90 89 80 90 84 96 96 97 97 96 96 94 94 97 98 98 97 98 97 91 94 100 97 94 94 100 100 98 100 99 99 99 98 97 97 97 97 97
98 99 93 76 61 69 73 73 73 77 87 95 83 80 86 90 85 84 76 82 96 97 97 97 97 96 96 95 97 97 97 98 98 96 92 90 99 98 95 93 95 100 100 100 99 100 99 98 97 97 97 96 97 97
94 85 91 96 81 72 83 93 88 84 96 99 82 92 99 98 92 73 96 97 98 98 98 98 98 96 96 97 96 96 93 92 93 92 92 94 99 98 98 98 98 99 100 100 96 92 94 96 97 98 98 98 98 97
97 94 96 95 81 98 98 97 91 94 95 93 94 100 99 82 70 82 100 100 99 98 98 97 96 95 95 96 94 94 92 94 95 95 95 96 93 94 96 97 98 99 99 98 94 94 96 96 97 98 98 97 97 97
79 88 85 90 83 87 98 97 94 90 98 99 96 98 98 82 95 98 100 100 97 97 96 96 95 94 95 96 96 96 96 97 96 89 91 94 100 98 95 96 95 94 95 96 94 95 96 97 97 97 97 98 97 97
94 96 91 97 92 90 94 99 97 98 94 96 97 86 67 91 92 98 90 96 97 99 100 95 92 91 93 97 97 97 97 97 99 96 96 99 98 99 99 96 96 95 94 97 95 96 94 89 87 90 94 95 96 95
96 98 88 86 88 79 87 78 79 88 94 95 95 91 88 98 100 98 100 98 95 96 97 98 100 96 95 96 96 96 97 97 97 96 98 98 97 96 96 96 94 97 97 97 98 97 97 95 87 74 69 66 66 64
83 80 90 87 84 83 95 96 98 100 100 94 79 99 100 94 100 100 100 100 95 97 93 92 96 98 99 99 97 96 96 95 98 98 98 97 97 97 96 97 97 97 96 97 97 97 97 96 91 84 80 84 77 73
79 74 70 97 90 95 100 100 100 100 100 83 97 100 100 100 100 100 100 100 100 100 99 95 88 90 96 96 99 100 100 100 96 97 96 96 97 93 94 97 98 97 96 96 97 97 97 97 98 97 96 92 88 93
82 77 89 92 98 100 100 100 100 99 93 89 97 100 100 100 100 100 98 96 99 100 100 97 94 93 95 95 95 95 97 96 95 96 96 96 95 94 95 96 97 98 98 98 98 98 98 97 97 97 93 92 89 84
77 78 89 93 100 99 99 98 96 92 93 94 89 92 99 100 100 100 96 92 91 91 92 95 95 94 94 93 95 95 95 95 96 95 94 93 93 93 96 94 92 84 87 90 85 74 62 60 62 65 68 71 72 78
76 77 88 100 98 95 99 83 84 85 85 85 91 88 92 92 94 96 90 88 83 67 74 66 50 43 38 37 36 36 36 39 40 41 41 43 45 48 52 54 60 63 68 81 87 87 86 80 80 82 84 83 80 79
83 77 81 89 100 100 98 98 96 98 96 99 99 99 97 88 91 93 90 91 71 48 41 38 38 38 38 37 38 39 39 38 38 38 37 36 36 37 41 44 47 51 52 56 61 69 80 83 81 77 72 69 65 64
Wind_Speed
28 24 32 28 25 21 21 23 21 20 18 20 17 14 12 13 16 18 17 13 15 7 21 21 22 19 11 6 2 9 8 5 5 3 1 2 2 4 4 5 5 3 3 2 2 2 6 6 5 3 1 13 12 16
28 28 29 29 27 25 28 26 22 21 21 21 17 15 11 13 16 17 18 15 15 19 13 13 16 19 21 21 15 3 3 8 4 2 2 2 2 2 5 3 3 3 1 3 3 3 4 12 7 13 4 10 10 13
27 27 27 26 25 23 25 23 24 22 21 19 17 16 13 13 12 17 19 14 12 17 22 26 25 16 14 16 22 11 9 8 5 5 2 1 4 2 3 3 3 3 7 2 2 2 8 16 9 13 3 10 18 12
31 31 29 27 25 27 24 23 24 21 20 19 19 17 15 15 12 12 17 14 12 5 5 11 16 18 14 13 15 20 22 12 7 3 4 2 3 4 3 7 6 4 6 7 4 5 12 3 16 16 11 7 8 1
30 31 31 30 26 24 24 27 23 22 20 18 18 17 16 15 13 15 16 13 16 12 3 12 30 25 9 22 26 22 20 21 18 6 3 3 4 3 3 3 2 7 4 3 2 11 6 6 9 10 16 14 8 6
29 28 31 34 26 23 27 29 25 23 20 18 17 18 18 17 14 14 8 20 21 19 6 3 10 26 22 18 15 17 26 21 12 6 5 5 5 3 2 3 3 13 14 13 8 22 13 9 15 16 19 16 13 15
29 28 28 26 23 25 30 27 27 23 20 20 17 15 13 17 19 22 5 1 11 21 4 5 7 5 6 4 12 13 13 12 11 6 5 5 5 2 2 3 8 14 16 15 22 21 19 22 14 15 15 12 11 10
27 27 25 26 26 28 30 25 27 25 22 18 16 16 16 18 19 21 21 4 9 21 4 3 4 7 4 4 5 8 7 12 9 6 4 4 3 6 4 3 8 13 18 13 24 16 12 11 13 14 12 13 11 11
27 29 28 26 27 28 24 23 23 21 19 15 16 17 15 17 14 20 15 11 14 9 5 3 3 3 2 2 3 4 10 3 7 4 4 5 2 3 5 6 9 15 13 18 22 16 16 16 17 17 15 14 13 10
27 27 25 26 27 28 27 24 22 21 18 20 17 12 8 9 14 13 14 18 14 8 7 5 6 3 2 4 2 2 3 1 2 3 4 3 2 10 8 6 8 12 15 16 18 21 23 19 18 16 15 13 11 8
26 28 27 26 26 25 24 22 21 22 23 21 12 8 10 25 17 8 4 5 7 4 8 8 19 6 5 2 2 3 2 1 1 1 2 2 2 3 5 7 10 14 13 10 9 9 10 11 13 13 13 11 9 7
26 28 28 26 25 25 24 23 26 30 19 22 14 20 28 8 5 4 5 3 5 5 7 5 7 11 5 5 2 2 1 2 3 0 2 2 3 4 6 8 11 13 13 13 13 12 12 11 11 10 10 10 8 6
27 28 29 29 28 26 26 29 33 31 21 27 12 9 8 6 4 8 8 4 5 5 10 8 4 6 6 5 2 2 2 4 1 0 1 2 4 5 7 10 11 12 13 15 14 12 12 11 11 11 10 9 8 6
28 28 28 28 29 31 31 36 29 30 25 8 9 7 5 5 6 4 4 5 8 6 16 16 5 5 4 2 1 2 3 1 2 2 2 1 3 7 8 9 11 13 14 15 14 14 14 13 12 11 10 9 8 6
31 31 32 32 32 32 32 30 34 38 10 5 7 6 5 4 2 5 8 9 3 6 18 7 4 3 1 2 1 1 2 3 2 2 1 1 3 6 7 8 10 11 13 13 13 13 13 14 14 12 10 9 7 5
20 18 18 25 32 35 34 50 39 11 4 3 4 3 6 5 2 4 8 7 5 12 11 2 2 3 1 3 3 4 2 4 2 1 3 2 4 6 7 8 9 11 12 12 12 14 15 14 12 12 11 8 6 5
24 12 30 31 36 42 41 36 14 6 6 4 3 8 9 10 6 4 4 4 6 8 2 3 4 5 2 2 1 3 3 2 1 4 3 4 5 6 7 9 10 12 13 12 12 13 15 15 13 10 7 5 5 3
21 27 33 44 52 47 32 10 6 5 6 7 4 4 10 9 7 6 4 3 3 4 3 2 3 2 1 3 2 2 4 2 4 5 6 5 4 5 7 8 10 12 12 12 12 13 15 13 10 8 7 6 4 2
32 36 39 39 40 26 6 5 4 5 5 7 9 9 11 11 13 8 7 8 8 10 11 5 5 2 2 1 2 3 5 6 7 8 7 5 4 7 8 9 9 9 9 10 11 12 11 10 8 7 6 5 3 1
48 49 43 31 25 7 6 5 5 7 4 4 7 7 7 7 6 12 12 10 9 6 7 4 1 1 3 4 3 3 4 6 7 6 5 7 6 8 9 9 9 10 9 9 9 9 9 9 8 7 6 4 2 1
47 35 27 22 18 13 7 5 6 6 7 7 9 5 6 7 7 8 9 9 9 6 4 5 5 6 4 4 3 3 3 3 4 6 8 10 9 7 8 9 10 9 9 9 9 9 9 8 7 5 4 2 1 3
22 29 23 12 7 5 6 6 10 8 5 8 5 5 6 4 4 6 6 11 6 5 3 3 5 3 3 3 4 3 3 4 5 5 5 6 5 6 8 8 8 7 7 7 7 7 7 5 4 3 3 4 4 4
23 21 9 6 5 5 5 5 4 4 4 4 5 4 3 3 3 4 5 5 4 6 3 7 6 3 3 2 2 3 3 5 6 6 6 7 7 7 7 7 6 5 6 5 5 5 4 4 3 4 5 6 6 9
10 6 5 4 5 3 5 3 4 5 5 3 3 3 1 3 4 5 3 3 4 5 6 8 3 2 2 3 4 5 5 7 7 6 7 8 9 11 11 12 12 10 9 7 5 5 4 5 5 5 6 7 9 10
5 7 4 4 5 4 4 3 3 3 2 2 3 2 2 3 2 3 2 2 5 6 7 6 3 2 1 2 3 5 5 4 5 7 8 9 9 8 9 11 12 14 13 11 8 7 6 6 6 7 7 7 8 8
6 8 4 2 3 4 1 3 2 3 3 3 3 4 3 2 3 2 2 2 3 4 3 4 6 7 8 6 3 2 3 5 5 4 6 6 6 6 7 8 8 8 10 10 10 7 7 7 6 5 5 5 5 5
4 3 5 6 4 7 5 7 6 5 3 2 1 2 3 4 2 1 5 4 4 4 3 2 2 3 5 7 7 8 7 5 4 5 5 5 5 5 5 6 7 7 6 4 4 5 5 5 4 4 3 4 5 5
5 5 4 5 8 8 4 3 3 2 1 2 4 4 4 5 3 3 4 6 4 6 6 6 3 2 2 2 2 4 6 7 7 6 6 6 5 4 4 5 6 6 6 4 2 0 1 2 2 2 3 4 4 5
5 5 6 6 6 7 8 3 2 2 2 2 4 2 3 4 8 10 10 7 3 1 2 3 5 5 3 2 1 2 3 3 5 4 4 4 4 5 8 8 5 5 5 5 4 2 1 1 2 2 3 3 3 3
4 4 6 6 4 4 7 4 4 6 7 9 9 16 19 16 13 9 6 3 2 2 2 2 2 3 3 2 2 2 1 2 4 3 3 4 5 6 7 8 7 5 4 3 3 3 2 2 1 1 0 0 1 1
5 5 7 7 6 12 19 21 19 17 17 18 23 21 13 9 8 7 5 4 3 2 2 1 2 2 1 1 2 2 2 2 3 4 4 4 5 5 5 5 5 5 4 4 3 4 3 2 1 0 1 1 2 2
5 5 8 5 4 15 5 5 7 9 7 5 5 5 5 4 4 7 5 4 5 3 2 2 3 3 3 3 2 3 3 3 4 5 5 6 6 6 6 6 5 4 2 3 3 3 2 2 1 1 2 3 3 3
17 21 16 10 6 7 5 5 4 4 3 3 2 2 2 2 3 6 7 4 4 5 4 4 3 3 3 4 5 4 4 4 4 4 4 5 5 5 4 4 5 4 3 3 2 2 2 2 2 3 3 3 4 4
Wind_Direction
234 232 223 220 222 234 215 217 221 236 224 211 214 218 224 218 216 224 231 218 218 236 264 266 272 275 271 267 239 306 343 354 335 32 8 343 302 317 303 281 276 324 276 220 102 138 269 7 344 174 27 306 297 296
228 223 220 223 235 232 229 230 238 226 214 213 215 216 220 217 219 230 225 223 233 239 257 274 275 265 266 277 264 265 261 310 278 33 343 311 303 282 326 299 40 303 274 294 217 229 332 329 312 311 312 305 316 329
225 224 223 231 236 240 229 224 219 213 206 215 219 216 217 228 229 229 225 223 232 247 270 271 277 302 277 260 253 245 263 239 244 264 319 347 281 266 294 275 288 290 296 254 272 12 306 306 334 355 356 286 307 320
226 225 226 228 227 231 218 212 200 206 217 217 215 214 220 225 234 237 221 225 228 264 269 280 285 280 287 261 251 245 244 232 271 297 325 244 244 213 268 283 292 262 306 308 281 275 307 332 340 337 345 271 262 357
223 222 219 221 215 218 216 207 212 207 207 214 217 220 220 218 220 229 234 236 239 229 279 293 296 303 272 252 253 249 240 241 250 259 237 261 237 272 249 276 273 339 329 323 298 299 310 306 16 45 64 70 76 55
221 221 221 216 214 219 211 208 211 207 214 215 225 230 230 221 215 224 240 238 229 230 263 296 290 287 290 266 253 242 241 246 217 207 228 244 246 261 267 286 40 7 355 9 330 335 30 44 50 59 50 35 46 52
219 217 221 218 218 216 209 208 205 210 213 216 222 219 218 209 211 205 192 199 218 207 257 293 292 273 290 265 216 229 225 209 205 212 226 241 239 200 257 261 357 349 350 358 13 19 6 19 6 23 34 40 37 41
215 212 210 211 211 205 207 210 211 212 220 227 223 204 206 207 219 231 223 204 182 187 204 254 268 302 206 189 181 193 195 200 213 212 215 215 224 209 233 46 350 347 355 347 2 1 356 352 23 32 18 10 14 24
212 208 211 209 203 206 208 205 204 212 213 208 193 205 211 213 213 226 231 208 179 189 198 222 244 258 215 181 181 226 207 188 200 200 213 192 181 227 60 36 9 12 5 334 342 341 351 8 11 14 19 25 16 18
208 205 206 207 200 202 209 207 207 209 193 189 195 182 203 186 203 202 152 166 193 214 224 224 222 264 254 166 319 292 247 202 199 214 189 214 82 87 63 38 12 359 350 350 353 352 351 354 357 360 4 8 6 3
209 210 205 210 213 207 210 213 211 191 194 201 185 177 160 151 160 183 133 178 200 206 214 226 213 223 254 154 206 240 286 102 236 223 238 209 123 81 29 19 350 351 356 354 341 327 334 337 337 342 342 346 346 342
208 207 211 216 218 216 218 211 197 192 203 191 156 141 142 145 158 164 178 189 206 233 197 199 214 204 225 226 142 219 274 5 263 77 236 189 92 53 16 8 350 353 356 356 352 348 346 346 345 340 331 335 339 345
212 215 220 224 225 221 211 201 198 204 191 143 143 169 170 168 178 182 186 197 197 207 187 173 178 166 199 206 115 167 217 233 17 61 306 66 97 29 6 359 360 356 356 356 356 354 352 352 350 347 344 341 339 338
225 225 223 221 219 217 215 206 207 180 160 154 160 161 181 190 217 189 184 166 200 190 174 164 132 185 166 108 146 156 240 264 236 224 204 73 31 7 360 356 357 358 357 358 358 357 356 356 356 353 348 347 348 344
229 228 226 224 221 214 207 187 179 162 171 139 154 185 194 181 115 148 143 125 128 175 167 145 107 159 59 110 199 141 209 255 234 220 191 87 359 360 1 2 1 3 7 9 9 6 2 1 359 359 1 2 1 4
200 189 203 187 180 176 165 153 161 134 81 85 70 88 129 109 88 89 126 125 156 165 158 149 115 79 182 152 159 209 175 233 246 154 105 38 8 7 12 7 7 9 8 6 12 14 10 1 359 360 360 358 9 20
160 149 152 142 157 153 144 152 136 68 75 73 54 81 88 84 93 97 113 131 162 162 171 142 108 199 138 115 141 27 165 244 48 83 43 5 352 355 3 2 357 355 353 355 358 360 357 355 354 348 349 15 26 46
173 156 154 162 156 152 145 131 84 81 75 57 83 56 80 92 100 81 70 106 145 139 117 108 121 93 143 177 250 273 35 50 59 4 332 305 304 331 347 350 348 349 349 347 343 344 350 353 1 7 12 17 25 78
151 154 162 159 153 132 91 66 61 91 82 91 92 80 85 82 74 81 88 88 108 117 112 56 72 93 182 114 134 69 39 17 347 344 350 343 315 330 342 344 341 342 344 342 340 344 350 356 1 4 1 2 355 103
142 144 140 139 148 100 87 73 82 89 97 108 106 88 77 77 80 63 73 87 92 59 53 46 114 125 108 101 49 356 337 326 324 335 357 354 318 315 326 333 334 335 333 337 339 341 342 341 343 348 350 353 4 146
140 127 129 142 75 62 81 96 73 89 106 94 109 84 79 69 45 40 38 36 62 41 61 71 100 112 72 12 6 12 25 28 10 343 333 332 331 307 318 330 332 329 322 326 329 332 332 332 336 343 5 24 78 131
118 143 128 82 75 83 79 61 109 107 82 119 93 78 69 52 38 32 47 49 62 39 63 89 129 132 37 76 65 43 16 340 338 341 345 345 333 327 336 342 338 336 335 333 330 337 340 349 8 40 63 89 100 113
130 132 79 66 82 70 123 128 89 95 95 123 101 73 43 73 70 48 72 60 71 25 70 116 128 88 73 83 24 10 13 14 7 3 7 12 3 358 353 355 1 359 351 354 8 6 359 17 53 73 91 101 113 120
95 69 53 59 65 110 138 88 89 94 108 76 80 92 78 117 100 65 75 69 53 63 120 140 132 88 46 32 50 47 47 42 32 40 54 53 50 48 47 48 48 48 45 41 44 44 46 61 70 82 95 108 119 123
89 21 40 24 46 77 63 40 37 65 88 94 96 118 124 116 74 69 100 110 79 89 77 73 60 20 63 105 66 51 54 66 55 49 59 54 44 41 50 53 54 54 46 36 38 45 61 70 80 89 96 101 114 124
76 25 50 47 16 89 95 92 98 129 108 84 75 92 81 78 73 74 81 131 125 113 117 76 48 47 67 73 76 78 85 69 52 29 53 47 44 41 39 31 33 37 41 39 42 51 60 66 73 82 94 108 119 129
81 25 53 47 92 93 83 72 66 71 75 93 95 72 80 76 115 119 130 119 115 119 122 121 102 67 63 68 70 70 66 65 56 57 50 39 41 41 36 33 32 24 14 15 33 41 50 54 63 82 99 122 130 129
81 51 92 24 68 48 95 65 57 77 87 74 80 55 113 150 168 132 142 146 109 81 72 69 75 93 83 66 88 73 63 56 51 41 41 40 39 27 24 20 16 17 20 14 336 318 73 63 82 107 113 114 121 133
65 86 91 48 63 55 42 55 94 72 73 83 107 115 111 95 117 126 133 148 142 85 13 27 41 60 75 57 17 241 245 332 7 16 19 35 24 30 35 27 18 9 20 32 36 46 36 168 170 162 158 146 146 159
74 56 95 63 59 40 16 36 80 103 104 106 102 113 105 103 109 121 128 147 203 252 262 286 348 37 35 29 10 29 30 358 346 356 359 10 16 15 19 21 28 24 21 35 48 52 50 66 87 84 28 218 230 256
94 94 79 66 75 102 100 90 90 94 100 107 122 115 116 123 132 124 132 139 140 131 121 57 10 5 349 333 351 326 321 344 345 349 348 349 346 347 344 340 342 350 359 8 19 9 351 323 274 255 277 274 266 246
49 79 118 107 140 161 93 79 81 93 89 84 82 104 119 131 145 175 166 128 101 89 118 112 79 59 49 43 33 19 3 341 323 320 317 320 321 327 331 331 330 328 323 303 308 331 3 22 22 333 298 284 286 272
90 98 107 102 127 172 155 135 100 106 102 97 98 115 121 145 152 175 172 151 125 125 129 114 99 85 66 56 51 38 27 16 7 359 359 357 354 347 342 345 352 353 356 3 343 288 285 298 308 313 301 297 297 291